SCP
0 0 0 0 0 0 0 0 0 0 0 0 0 0 0 0 0 0 0 0 0 0 0 -0 0 0 0 0 0 0 0 0 0 0 0 0 0 0
0 0 0 0 0 0 0 0 0 0 0 0 0 0 0 0 0 0 0 0 0 0 0 -0 0 0 0 0 0 0 0 0 0 0 0 0 0 0
0 0 0 0 0 0 0 0 0 0 0 0 0 0 0 0 0 0 0 0 0 0 -0 0 0 0 0 0 0 0 0 0 0 0 0 0 0 0
0 0 0 0 0 0 0 0 0 0 0 0 0 0 0 0 0 0 0 0 0 0 0 0 0 0 0 0 0 0 0 0 0 0 0 0 0 0
0 0 0 0 0 0 0 0 0 0 0 0 0 0 0 0 0 0 0 0 0 -0 0 0 0 0 0 0 0 0 0 0 0 0 0 0 0 0
0 0 0 0 0 0 0 0 0 0 0 0 0 0 0 0 0 0 0 0 0 0 0 0 0 0 0 0 0 0 0 0 0 0 0 0 0 0
0 0 0 0 0 0 0 0 0 0 0 0 0 0 0 0 0 0 0 0 0 0 0 0 0 0 0 0 0 0 0 0 0 0 0 0 0 0
0 0 0 -0 0 0 -0 -0 0 0 0 0 0 0 0 0 0 0 0 0 0 0 0 0 0 0 0 0 0 0 0 0 0 0 0 0 0 0
0 0 0 0 0 0 -0 0 0 0 0 0 -0 -0 -0 0 0 0 -0 0 0 0 0 0 0 0 0 0 0 0 0 0 0 0 0 0 0 0
0 0 0 0 0 0 0 0 0 0 0 0 0 0 0 -0 0 -0 -0 -0 0 0 0 0 0 0 0 0 0 0 0 0 0 0 0 0 0 0
-0 -0 0 0 0 0 0 0 0 0 0 0 0 0 0 -0 0 -0 -0 -0 0 0 0 0 0 0 0 0 0 0 0 0 0 0 0 0 0 -0
0 0 0 0 0 0 0 0 0 0 0 0 0 0 -0 -0 0 0 -0 0 0 0 0 0 0 0 0 0 0 0 0 0 0 0 0 0 0 0
0 0 0 0 0 0 0 0 0 0 -0 0 -0 -0 -0 -0 0 0 0 0 0 0 0 0 0 0 0 0 0 0 0 0 0 0 0 0 0 0
-0 -0 -0 0 0 0 0 0 0 0 0 0 -0 0 0 0 0 0 0 0 0 0 0 0 0 0 0 0 0 0 0 0 0 0 0 0 0 0
-0 -0 -0 -0 -0 -0 -0 0 -0 -0 -0 -0 -0 0 0 0 0 0 0 0 0 0 0 0 0 0 0 0 0 0 0 0 0 0 0 0 0 0
-0 -0 -0 -0 -0 0 0 0 0 0 -0 -0 0 0 0 0 0 0 0 0 0 0 0 0 0 0 0 0 0 0 0 0 0 0 0 0 0 0
0 -0 -0 0 0 -0 -0 -0 -0 0 0 0 0 0 0 0 0 0 0 0 0 0 0 0 0 0 0 0 0 0 0 0 0 0 0 0 0 0
-0 -0 -0 -0 -0 -0 -0 0 0 0 0 0 0 0 0 0 0 0 0 0 0 0 0 0 0 0 0 0 0 0 0 0 0 0 0 0 0 0
-0 -0 -0 -0 -0 -0 0 0 0 0 0 0 0 0 0 0 0 0 0 0 0 0 0 0 0 0 0 0 0 0 0 0 0 0 0 0 0 0
-0 -0 -0 0 0 0 0 0 0 0 0 0 0 0 0 0 0 0 0 0 0 0 0 0 0 0 0 0 0 0 0 0 0 0 0 0 0 -0
0 0 0 0 0 0 0 0 0 0 0 0 0 0 0 0 0 0 0 0 0 0 0 0 0 0 0 0 0 0 0 0 0 0 0 0 0 0
0 0 0 0 0 0 0 0 0 0 0 0 0 0 0 0 0 0 0 0 0 0 0 0 0 0 0 0 0 0 0 0 0 0 0 0 0 0
0 0 0 0 0 0 0 0 0 0 0 0 0 0 0 0 0 0 0 0 0 0 0 0 0 0 0 0 0 0 0 0 0 0 0 0 0 0
Wind_Speed_500mb
11 5 5 11 24 17 21 37 38 33 32 30 34 70 81 72 73 67 60 48 38 28 20 17 16 15 13 9 4 2 4 9 12 15 20 24 26 29
14 10 6 18 18 24 15 24 35 24 24 47 40 68 67 63 67 59 51 39 30 23 23 18 16 15 11 5 4 3 6 11 17 19 21 25 28 31
18 13 15 13 23 27 13 22 20 29 32 45 41 54 53 66 56 52 44 36 29 22 21 18 16 13 9 5 2 6 9 10 14 19 22 27 31 36
18 18 18 19 27 22 16 19 21 22 32 49 39 53 56 66 65 48 41 34 22 19 18 16 15 11 6 3 2 7 10 15 21 27 31 32 35 39
14 15 23 21 23 24 19 19 20 21 30 41 51 56 57 66 57 48 36 26 14 20 18 17 13 10 6 6 6 11 18 24 28 31 35 39 41 44
14 15 18 19 24 25 24 20 18 26 34 35 53 59 55 66 55 42 26 15 12 19 17 15 10 6 4 6 12 17 22 26 29 31 34 37 40 43
18 19 18 18 20 20 19 25 28 27 56 55 70 63 58 58 44 31 24 16 20 20 14 11 6 2 5 9 14 16 19 22 27 32 35 36 42 46
26 30 28 24 27 30 24 22 38 41 45 48 50 49 63 51 38 31 27 25 21 18 19 11 4 2 5 9 14 18 22 25 27 29 32 40 44 47
36 41 42 37 36 38 37 55 42 37 34 37 40 39 43 38 31 30 30 25 24 20 9 10 5 5 5 7 13 18 21 24 28 32 34 38 45 52
26 38 45 49 43 44 50 44 35 27 29 30 30 34 32 33 28 28 27 26 20 13 9 8 9 4 2 6 11 19 22 22 27 34 39 44 47 51
44 42 42 43 46 35 42 27 33 41 46 44 42 37 35 33 30 25 20 16 13 12 11 10 11 8 7 3 10 18 19 27 31 35 42 47 52 54
42 34 35 41 36 29 33 34 33 35 38 40 34 31 29 25 21 19 13 10 10 10 9 9 5 6 9 9 7 11 21 28 32 38 44 51 58 61
32 42 33 26 27 31 34 29 29 31 31 29 29 24 20 19 17 14 11 10 6 5 5 8 10 7 6 6 7 11 22 29 34 44 49 53 59 63
48 39 30 27 28 28 29 27 23 18 15 17 17 16 13 11 10 8 8 4 5 10 10 11 6 8 9 9 3 11 23 26 41 48 53 55 56 56
35 32 28 27 26 27 28 25 22 20 18 17 15 12 10 9 10 12 7 8 14 11 9 8 12 11 9 5 8 22 30 28 45 47 53 56 61 62
35 37 35 31 30 28 27 27 25 22 17 16 15 14 17 16 14 13 12 12 10 8 12 14 13 11 5 2 13 21 29 30 39 46 53 56 57 56
37 40 40 39 36 34 32 31 29 27 27 25 23 21 20 19 21 19 17 16 13 15 20 18 15 9 3 5 15 23 28 33 41 50 55 58 55 56
40 43 44 42 40 37 37 37 37 34 30 26 24 25 27 29 31 28 22 19 17 22 20 17 12 7 1 6 14 22 28 38 44 50 54 58 56 52
45 45 46 45 43 43 44 43 40 36 33 33 32 32 34 35 36 33 29 28 27 27 23 16 10 7 2 9 14 24 31 38 44 48 52 53 55 41
54 52 52 50 49 49 50 49 45 42 42 41 40 40 41 42 42 41 38 34 33 29 24 18 13 6 3 10 14 23 33 39 45 48 51 54 54 38
60 57 54 53 51 51 53 53 52 52 51 49 48 48 49 50 51 48 42 38 36 27 23 18 12 4 6 12 18 23 29 36 44 49 53 56 60 47
62 63 60 59 58 57 58 60 60 59 57 55 54 52 54 56 57 54 47 47 42 31 27 27 12 6 8 11 17 23 26 29 36 39 41 47 48 47
64 62 62 64 62 62 63 64 63 62 60 60 58 54 54 62 61 54 45 48 43 28 25 23 13 12 11 12 17 21 26 32 36 35 38 41 32 37
Wind_Direction_500mb
179 163 167 175 176 207 234 182 160 130 152 159 148 169 153 149 153 153 147 142 146 150 132 139 160 154 147 160 161 90 21 10 357 344 343 340 332 325
173 173 134 162 200 196 170 202 206 193 150 169 166 160 159 146 156 149 143 144 147 150 141 152 150 144 152 129 85 52 19 356 354 344 333 325 319 313
171 163 154 177 176 186 179 194 194 189 172 166 171 172 161 170 156 147 146 153 159 149 151 146 139 132 120 128 74 16 0 335 319 315 317 320 323 324
167 160 153 174 188 204 201 191 196 186 181 172 179 173 166 172 160 149 150 153 157 144 146 134 130 133 132 102 283 270 287 303 310 316 320 317 313 309
170 174 167 193 178 183 183 179 181 178 173 151 163 167 167 160 154 153 152 147 113 117 127 132 129 132 160 226 281 300 309 311 307 308 308 306 302 301
146 148 167 175 169 171 166 165 176 171 179 165 160 163 158 161 163 164 155 143 134 129 129 131 139 172 238 313 317 310 308 309 309 308 310 314 317 316
179 165 156 158 155 155 171 177 177 170 177 148 165 174 177 159 171 164 165 159 142 127 133 140 145 103 340 322 319 326 326 323 323 321 321 322 321 322
134 139 139 143 147 146 143 180 147 135 134 151 149 146 162 171 175 176 174 159 135 144 156 137 106 356 345 337 338 328 329 336 337 338 336 334 332 326
135 144 144 147 158 164 134 129 132 129 121 131 142 155 165 166 166 168 162 157 149 149 173 129 115 348 326 332 340 350 350 347 343 340 341 339 338 337
136 139 137 131 126 127 135 126 124 126 129 132 137 136 141 145 144 145 157 163 159 161 170 169 180 185 234 336 2 351 348 349 350 351 348 345 346 345
135 131 130 136 130 133 129 128 129 130 129 129 131 133 140 145 147 152 165 175 175 169 164 181 169 174 209 292 342 339 360 360 354 358 353 349 349 350
151 144 133 127 132 134 135 134 137 137 139 139 141 143 146 152 155 160 169 169 178 163 173 186 167 172 204 254 312 353 1 2 1 359 360 357 353 355
166 155 146 138 135 129 137 135 141 133 135 146 147 146 149 146 141 142 150 158 186 213 256 264 258 234 192 246 241 347 357 0 2 5 4 0 358 353
165 158 155 152 151 150 147 149 154 154 151 158 159 152 147 145 155 178 180 186 267 298 283 261 215 175 170 170 187 359 1 5 3 2 360 360 354 352
180 184 177 170 171 174 175 178 180 184 189 182 173 174 184 209 209 198 201 281 301 294 257 190 161 166 150 125 26 6 2 8 1 356 356 358 353 350
182 184 185 186 185 186 192 189 186 188 188 191 198 215 224 214 209 232 256 273 280 257 182 169 160 153 173 62 5 3 4 1 353 354 356 355 353 351
189 192 195 196 198 200 200 199 196 198 202 211 224 234 232 230 226 234 257 272 251 213 187 171 163 162 159 6 9 5 358 353 355 355 353 353 353 352
201 205 208 211 213 213 211 208 210 213 220 230 242 251 254 246 241 237 247 241 231 201 186 179 174 163 110 1 360 360 354 355 357 356 352 351 356 357
220 221 222 223 222 221 221 222 224 227 233 242 249 252 252 244 234 234 235 228 214 209 197 188 170 153 106 23 347 351 359 355 356 353 352 353 353 354
223 226 227 228 227 227 225 226 230 235 243 251 254 253 248 242 237 233 231 224 214 204 205 198 190 190 349 15 3 356 357 353 354 352 351 355 355 354
226 229 230 231 233 234 233 234 237 241 246 252 256 255 248 243 237 234 228 215 207 201 213 229 214 235 336 348 1 1 358 354 353 354 354 355 356 356
228 231 232 233 233 234 236 239 241 244 248 252 254 254 246 241 236 233 219 209 200 196 216 229 230 268 310 336 346 350 355 360 356 358 360 357 357 354
233 233 235 237 240 242 242 241 244 247 250 252 253 251 248 237 231 223 209 207 191 202 241 233 241 264 291 320 340 344 354 354 354 359 1 4 6 1
Wind_Speed_850mb
11 5 5 11 24 17 21 37 38 33 32 30 34 70 81 72 73 67 60 48 38 28 20 17 16 15 13 9 4 2 4 9 12 15 20 24 26 29
14 10 6 18 18 24 15 24 35 24 24 47 40 68 67 63 67 59 51 39 30 23 23 18 16 15 11 5 4 3 6 11 17 19 21 25 28 31
18 13 15 13 23 27 13 22 20 29 32 45 41 54 53 66 56 52 44 36 29 22 21 18 16 13 9 5 2 6 9 10 14 19 22 27 31 36
18 18 18 19 27 22 16 19 21 22 32 49 39 53 56 66 65 48 41 34 22 19 18 16 15 11 6 3 2 7 10 15 21 27 31 32 35 39
14 15 23 21 23 24 19 19 20 21 30 41 51 56 57 66 57 48 36 26 14 20 18 17 13 10 6 6 6 11 18 24 28 31 35 39 41 44
14 15 18 19 24 25 24 20 18 26 34 35 53 59 55 66 55 42 26 15 12 19 17 15 10 6 4 6 12 17 22 26 29 31 34 37 40 43
18 19 18 18 20 20 19 25 28 27 56 55 70 63 58 58 44 31 24 16 20 20 14 11 6 2 5 9 14 16 19 22 27 32 35 36 42 46
26 30 28 24 27 30 24 22 38 41 45 48 50 49 63 51 38 31 27 25 21 18 19 11 4 2 5 9 14 18 22 25 27 29 32 40 44 47
36 41 42 37 36 38 37 55 42 37 34 37 40 39 43 38 31 30 30 25 24 20 9 10 5 5 5 7 13 18 21 24 28 32 34 38 45 52
26 38 45 49 43 44 50 44 35 27 29 30 30 34 32 33 28 28 27 26 20 13 9 8 9 4 2 6 11 19 22 22 27 34 39 44 47 51
44 42 42 43 46 35 42 27 33 41 46 44 42 37 35 33 30 25 20 16 13 12 11 10 11 8 7 3 10 18 19 27 31 35 42 47 52 54
42 34 35 41 36 29 33 34 33 35 38 40 34 31 29 25 21 19 13 10 10 10 9 9 5 6 9 9 7 11 21 28 32 38 44 51 58 61
32 42 33 26 27 31 34 29 29 31 31 29 29 24 20 19 17 14 11 10 6 5 5 8 10 7 6 6 7 11 22 29 34 44 49 53 59 63
48 39 30 27 28 28 29 27 23 18 15 17 17 16 13 11 10 8 8 4 5 10 10 11 6 8 9 9 3 11 23 26 41 48 53 55 56 56
35 32 28 27 26 27 28 25 22 20 18 17 15 12 10 9 10 12 7 8 14 11 9 8 12 11 9 5 8 22 30 28 45 47 53 56 61 62
35 37 35 31 30 28 27 27 25 22 17 16 15 14 17 16 14 13 12 12 10 8 12 14 13 11 5 2 13 21 29 30 39 46 53 56 57 56
37 40 40 39 36 34 32 31 29 27 27 25 23 21 20 19 21 19 17 16 13 15 20 18 15 9 3 5 15 23 28 33 41 50 55 58 55 56
40 43 44 42 40 37 37 37 37 34 30 26 24 25 27 29 31 28 22 19 17 22 20 17 12 7 1 6 14 22 28 38 44 50 54 58 56 52
45 45 46 45 43 43 44 43 40 36 33 33 32 32 34 35 36 33 29 28 27 27 23 16 10 7 2 9 14 24 31 38 44 48 52 53 55 41
54 52 52 50 49 49 50 49 45 42 42 41 40 40 41 42 42 41 38 34 33 29 24 18 13 6 3 10 14 23 33 39 45 48 51 54 54 38
60 57 54 53 51 51 53 53 52 52 51 49 48 48 49 50 51 48 42 38 36 27 23 18 12 4 6 12 18 23 29 36 44 49 53 56 60 47
62 63 60 59 58 57 58 60 60 59 57 55 54 52 54 56 57 54 47 47 42 31 27 27 12 6 8 11 17 23 26 29 36 39 41 47 48 47
64 62 62 64 62 62 63 64 63 62 60 60 58 54 54 62 61 54 45 48 43 28 25 23 13 12 11 12 17 21 26 32 36 35 38 41 32 37
Wind_Direction_850mb
179 163 167 175 176 207 234 182 160 130 152 159 148 169 153 149 153 153 147 142 146 150 132 139 160 154 147 160 161 90 21 10 357 344 343 340 332 325
173 173 134 162 200 196 170 202 206 193 150 169 166 160 159 146 156 149 143 144 147 150 141 152 150 144 152 129 85 52 19 356 354 344 333 325 319 313
171 163 154 177 176 186 179 194 194 189 172 166 171 172 161 170 156 147 146 153 159 149 151 146 139 132 120 128 74 16 0 335 319 315 317 320 323 324
167 160 153 174 188 204 201 191 196 186 181 172 179 173 166 172 160 149 150 153 157 144 146 134 130 133 132 102 283 270 287 303 310 316 320 317 313 309
170 174 167 193 178 183 183 179 181 178 173 151 163 167 167 160 154 153 152 147 113 117 127 132 129 132 160 226 281 300 309 311 307 308 308 306 302 301
146 148 167 175 169 171 166 165 176 171 179 165 160 163 158 161 163 164 155 143 134 129 129 131 139 172 238 313 317 310 308 309 309 308 310 314 317 316
179 165 156 158 155 155 171 177 177 170 177 148 165 174 177 159 171 164 165 159 142 127 133 140 145 103 340 322 319 326 326 323 323 321 321 322 321 322
134 139 139 143 147 146 143 180 147 135 134 151 149 146 162 171 175 176 174 159 135 144 156 137 106 356 345 337 338 328 329 336 337 338 336 334 332 326
135 144 144 147 158 164 134 129 132 129 121 131 142 155 165 166 166 168 162 157 149 149 173 129 115 348 326 332 340 350 350 347 343 340 341 339 338 337
136 139 137 131 126 127 135 126 124 126 129 132 137 136 141 145 144 145 157 163 159 161 170 169 180 185 234 336 2 351 348 349 350 351 348 345 346 345
135 131 130 136 130 133 129 128 129 130 129 129 131 133 140 145 147 152 165 175 175 169 164 181 169 174 209 292 342 339 360 360 354 358 353 349 349 350
151 144 133 127 132 134 135 134 137 137 139 139 141 143 146 152 155 160 169 169 178 163 173 186 167 172 204 254 312 353 1 2 1 359 360 357 353 355
166 155 146 138 135 129 137 135 141 133 135 146 147 146 149 146 141 142 150 158 186 213 256 264 258 234 192 246 241 347 357 0 2 5 4 0 358 353
165 158 155 152 151 150 147 149 154 154 151 158 159 152 147 145 155 178 180 186 267 298 283 261 215 175 170 170 187 359 1 5 3 2 360 360 354 352
180 184 177 170 171 174 175 178 180 184 189 182 173 174 184 209 209 198 201 281 301 294 257 190 161 166 150 125 26 6 2 8 1 356 356 358 353 350
182 184 185 186 185 186 192 189 186 188 188 191 198 215 224 214 209 232 256 273 280 257 182 169 160 153 173 62 5 3 4 1 353 354 356 355 353 351
189 192 195 196 198 200 200 199 196 198 202 211 224 234 232 230 226 234 257 272 251 213 187 171 163 162 159 6 9 5 358 353 355 355 353 353 353 352
201 205 208 211 213 213 211 208 210 213 220 230 242 251 254 246 241 237 247 241 231 201 186 179 174 163 110 1 360 360 354 355 357 356 352 351 356 357
220 221 222 223 222 221 221 222 224 227 233 242 249 252 252 244 234 234 235 228 214 209 197 188 170 153 106 23 347 351 359 355 356 353 352 353 353 354
223 226 227 228 227 227 225 226 230 235 243 251 254 253 248 242 237 233 231 224 214 204 205 198 190 190 349 15 3 356 357 353 354 352 351 355 355 354
226 229 230 231 233 234 233 234 237 241 246 252 256 255 248 243 237 234 228 215 207 201 213 229 214 235 336 348 1 1 358 354 353 354 354 355 356 356
228 231 232 233 233 234 236 239 241 244 248 252 254 254 246 241 236 233 219 209 200 196 216 229 230 268 310 336 346 350 355 360 356 358 360 357 357 354
233 233 235 237 240 242 242 241 244 247 250 252 253 251 248 237 231 223 209 207 191 202 241 233 241 264 291 320 340 344 354 354 354 359 1 4 6 1